Regional Weather Roundup
Issued by NWS

Home | Current Version | Previous Version | Text Only | Print | Product List | Glossary On
Versions: 1 2 3 4 5 6 7 8 9 10 11 12 13 14 15 16 17 18 19 20 21 22 23 24 25 26 27 28 29 30 31 32 33 34 35 36 37 38 39 40 41 42 43 44 45 46 47 48 49 50
000
ASUS43 KMPX 262110
RWRMN
WEATHER ROUNDUP FOR MINNESOTA
NATIONAL WEATHER SERVICE TWIN CITIES/CHANHASSEN MN
400 PM CDT TUE JUL 26 2016


NOTE: "FAIR" INDICATES FEW OR NO CLOUDS BELOW 12,000 FEET WITH NO
SIGNIFICANT WEATHER AND/OR OBSTRUCTIONS TO VISIBILITY. N/A MEANS
CURRENT SKY AND/OR WEATHER CONDITIONS ARE NOT AVAILABLE.

MNZ060>063-068>070-262200-
   Twin Cities Metro

CITY           SKY/WX    TMP DP  RH WIND       PRES   REMARKS
TWIN CITIES    MOSUNNY   90  63  40 W18G25    29.98S HX  91
ST PAUL        SUNNY     89  64  43 SW14      29.97S HX  90
CRYSTAL        SUNNY     89  64  43 SW15G26   29.96F HX  90
BLAINE         SUNNY     90  64  43 SW14G21   29.97S HX  91
LAKEVILLE      SUNNY     86  66  51 S6G16     30.00F
EDEN PRAIRIE   SUNNY     89  67  47 SW14G24   29.98S HX  92
LAKEVILLE      SUNNY     86  66  51 S6G16     30.00F
SOUTH ST PAUL  SUNNY     89  62  40 SW10G21   29.97S HX  90
LAKE ELMO      FAIR      88  64  45 SW9       29.99S
$$
MNZ001>005-007-008-013>017-022>024-027-028-262200-
   Northwest Minnesota

CITY           SKY/WX    TMP DP  RH WIND       PRES   REMARKS
BEMIDJI        MOSUNNY   84  66  54 NE5       29.96S
HALLOCK        CLOUDY    82  66  57 N12       29.96S
ROSEAU         SUNNY     81  66  61 NE9       29.98S
WARROAD        SUNNY     79  64  61 E8        29.99S
THIEF RVR FALL SUNNY     84  62  47 VRB3      29.99R
CROOKSTON      CLOUDY    84  63  48 E6        29.97R
FOSSTON        CLOUDY    84  66  54 N8        29.98R
DETROIT LAKES  CLOUDY    81  68  65 S3        29.99S
MOORHEAD       CLOUDY    81  70  69 CALM      29.95F
PARK RAPIDS    CLOUDY    80  66  62 SW6       29.98R
MAHNOMEN       CLOUDY    80  69  67 E5        29.97S
$$
MNZ006-009>011-018-025>026-262200-
   North Central Minnesota

CITY           SKY/WX    TMP DP  RH WIND       PRES   REMARKS
BAUDETTE       SUNNY     82  62  50 N13       29.97F
FLAG ISLAND    SUNNY     79  55  44 N12       29.96F
INTL FALLS     MOSUNNY   81  64  56 NE9       29.95S
WASKISH        SUNNY     86  64  48 W6        29.96R
BIG FORK       PTSUNNY   86  63  45 NE5       29.97S
LONGVILLE      MOSUNNY   79  70  73 CALM      29.98R
GRAND RAPIDS   MOSUNNY   80  67  64 VRB3      29.99S
CRANE LAKE     MOSUNNY   81  61  50 N6        29.96F
ORR            SUNNY     82  61  47 CALM      29.94F
COOK           CLOUDY    82  63  51 W6        29.97S
WALKER         CLOUDY    77  67  72 SW5       29.98S
$$
MNZ012-019>021-037-262200-
   Northeast Minnesota

CITY           SKY/WX    TMP DP  RH WIND       PRES   REMARKS
DULUTH         CLOUDY    82  67  60 W10       29.97S
ELY            CLOUDY    81  61  50 CALM      29.96F
HIBBING        CLOUDY    78  68  71 SW8       29.96F
EVELETH        CLOUDY    83  68  60 SW13      29.97F
DULUTH HARBOR  MOSUNNY   84  72  65 NW10      29.94S
TWO HARBORS    PTSUNNY   82  72  69 W6        29.93R
SILVER BAY     CLOUDY    84  70  61 CALM      29.91S
GRAND MARAIS     N/A     65  59  81 W7        29.91S
G MARAIS ARPRT CLOUDY    77  61  57 CALM      29.97S
$$
MNZ029>031-032-039>041-046>048-054>057-064-262200-
   West Central Minnesota

CITY           SKY/WX    TMP DP  RH WIND       PRES   REMARKS
FERGUS FALLS   CLOUDY    84  66  54 W3        29.97S
WHEATON        CLOUDY    82  66  57 SW5       29.99R
MORRIS         CLOUDY    84  68  58 W13G18    29.98R
ALEXANDRIA     MOSUNNY   86  71  60 SW14      29.99S HX  91
ELBOW LAKE     FAIR      83  71  68 W10       29.98S HAZE
WADENA         MOSUNNY   79  68  69 CALM      29.97F
GLENWOOD       CLOUDY    84  72  65 SW12      30.00S
APPLETON       CLOUDY    86  70  58 SW8G16    29.98R HX  90
BENSON         CLOUDY    84  70  61 SW9       29.99R
ORTONVILLE     CLOUDY    81  66  61 W8        29.99R
MADISON        CLOUDY    82  66  57 SW6       30.00S
WILLMAR        FAIR      84  70  61 S6        30.02R
$$
MNZ033>034-036-042>043-049>051-058-059-262200-
   Central Minnesota

CITY           SKY/WX    TMP DP  RH WIND       PRES   REMARKS
ST CLOUD       SUNNY     87  71  58 SW13      29.98S HX  93
SAUK CENTRE    FAIR      86  72  63 SW10      29.98F HX  92
PAYNESVILLE    MOSUNNY   84  68  58 SW10G16   30.00S
AITKIN         PTSUNNY   81  64  57 CALM      29.96F
PINE RIVER     CLOUDY    75  68  78 S3        30.01S
BRAINERD       CLOUDY    81  66  60 NW3       29.98S
STAPLES        MOSUNNY   81  64  57 NW5       29.98S
LONG PRAIRIE   FAIR      86  70  58 S8        29.98F HX  90
LITTLE FALLS   MOSUNNY   86  68  54 SW5       29.98S
LITCHFIELD     CLOUDY    86  68  54 SW8       30.00S
BUFFALO        SUNNY     86  63  45 SW12      30.00R
MAPLE LAKE     SUNNY     87  69  55 SW10G18   30.00S HX  91
HUTCHINSON     CLOUDY    86  69  55 SW8G16    30.02S HX  90
$$
MNZ037-044-045-052-053-262200-
   East Central Minnesota

CITY           SKY/WX    TMP DP  RH WIND       PRES   REMARKS
PRINCETON      MOSUNNY   90  70  51 SW10G18   29.98S HX  95
MORA           MOSUNNY   86  70  58 W6        29.99F HX  90
CAMBRIDGE      MOSUNNY   90  72  55 SW8       29.96S HX  96
RUSH CITY      PTSUNNY   85  70  61 W3        29.97F
MOOSE LAKE     CLOUDY    79  66  65 NW3       29.96F
HINCKLEY       FAIR      86  72  62 SW8       29.97F HX  92
CLOQUET        PTSUNNY   81  64  57 NW6       29.97F
MCGREGOR       CLOUDY    79  68  69 W6        29.98F
$$
MNZ071>073-080-081-089-090-097-098-262200-
   Southwest Minnesota

CITY           SKY/WX    TMP DP  RH WIND       PRES   REMARKS
MONTEVIDEO     CLOUDY    88  70  55 W8        30.01F HX  92
GRANITE FALLS  CLOUDY    88  69  53 S8        30.02S HX  92
CANBY          CLOUDY    85  66  52 SW7       30.02S
MARSHALL       CLOUDY    86  66  51 SW9       30.02S
REDWOOD FALLS  MOSUNNY   88  63  43 SW10      30.02R
OLIVIA         MOSUNNY   82  68  61 SW8       30.01S
PIPESTONE      CLOUDY    84  64  51 S7        30.05S
WINDOM         SUNNY     86  64  48 SW8       30.05S
WORTHINGTON    SUNNY     84  68  58 S8        30.07R
JACKSON        SUNNY     86  61  42 SW6       30.07R
TRACY          SUNNY     87  69  54 SW7       30.04S HX  91
SLAYTON        SUNNY     85  64  49 S7        30.06S
$$
MNZ065>067-074>077-082>085-091>093-262200-
   South Central Minnesota

CITY           SKY/WX    TMP DP  RH WIND       PRES   REMARKS
MANKATO        MOSUNNY   84  68  58 S12       30.03S
NEW ULM        SUNNY     86  66  51 S10       30.02S
ST JAMES       SUNNY     81  63  54 S7        30.04S
FAIRMONT       SUNNY     84  66  54 SW7       30.04S
GLENCOE        SUNNY     88  71  56 S10       30.01R HX  93
FARIBAULT      SUNNY     88  70  55 SW6       30.04S HX  92
OWATONNA       SUNNY     84  66  54 SW5       30.04S
WASECA         SUNNY     82  68  61 S6        30.05F
ALBERT LEA     SUNNY     84  68  58 SW6       30.05S
$$
MNZ078>079-086>088-094>096-262200-
   Southeast Minnesota

CITY           SKY/WX    TMP DP  RH WIND       PRES   REMARKS
ROCHESTER      SUNNY     85  70  60 SW6       30.05F
RED WING       SUNNY     90  61  37 SW10      29.98F
STANTON        SUNNY     88  66  48 SW12      30.00F HX  90
DODGE CENTER   SUNNY     88  64  45 SW8       30.05S
WINONA         SUNNY     90  64  43 W5        30.01S HX  91
AUSTIN         SUNNY     84  66  54 SW5       30.04F
PRESTON        MOSUNNY   83  64  53 W3        30.05F
$$
ABBREVIATIONS USED IN REMARKS
   TC - TEMPERATURES IN CELSIUS
  WCI - WIND CHILL INDEX
   HX - HEAT INDEX
  VSB - VISIBILITY
$$




USA.gov is the U.S. government's official web portal to all federal, state and local government web resources and services.